Weather History for KMHE - October, 2013

Change the Weather History Date:

Wednesday, October 23, 2013

  Actual Average Record
Temperature  
Mean Temperature 37 °F 47 °F  
Max Temperature 42 °F 59 °F 87 °F (1927)
Min Temperature 32 °F 35 °F 13 °F (1917)
Degree Days  
Heating Degree Days 28 18  
Month to date heating degree days 327 321  
Since 1 July heating degree days 388 479  
Cooling Degree Days 0 0  
Month to date cooling degree days 2 7  
Year to date cooling degree days 946 824  
Moisture  
Dew Point 34 °F    
Average Humidity 90    
Maximum Humidity 100    
Minimum Humidity 79    
Precipitation  
Precipitation 0.02 in 0.05 in 1.42 in (1995)
Month to date precipitation 4.22 1.35  
Year to date precipitation 25.15 20.02  
Snow  
Snow 0.00 in - 6.00 in (1995)
Month to date snowfall T  
Since 1 July snowfall T  
Since 1 September snowfall T  
Snow Depth 0.00 in    
Sea Level Pressure  
Sea Level Pressure 30.15 in    
Wind  
Wind Speed 7 mph (NNW)    
Max Wind Speed 17 mph    
Max Gust Speed 21 mph    
Visibility 10 miles    
Events Rain    
T = Trace of Precipitation, MM = Missing Value Source: NWS Daily Summary

Daily Weather History Graph

Daily Weather History Graph

Search for Another Location

Airport or City:

Trip Planner

Search our weather history database for the weather conditions in past years. The results will help you decide how hot, cold, wet, or windy it might be!

Date:

Astronomy

Oct. 23, 2013 Rise Set
Actual Time 7:56 AM CDT 6:35 PM CDT
Civil Twilight 7:27 AM CDT 7:04 PM CDT
Nautical Twilight 6:53 AM CDT 7:38 PM CDT
Astronomical Twilight 6:20 AM CDT 8:11 PM CDT
Moon 10:02 PM CDT (10/23) 12:19 PM CDT (10/23)
Length of Visible Light 11h 37m
Length of Day
10h 38m
Waning Gibbous, 79% of the Moon is Illuminated
Oct 23
Waning Gibbous
Oct 26
Last Quarter
Nov 3
New
Nov 9
First Quarter
Nov 17
Full

Hourly Weather History & Observations

Time (CDT) Temp. Windchill Dew Point Humidity Pressure Visibility Wind Dir Wind Speed Gust Speed Precip Events Conditions
12:53 AM 34.0 °F 28.8 °F 33.1 °F 96% 30.13 in 10.0 mi SSW 5.8 mph - N/A   Mostly Cloudy
1:53 AM 36.0 °F 31.1 °F 34.0 °F 93% 30.12 in 10.0 mi SW 5.8 mph - N/A   Overcast
2:53 AM 35.1 °F 31.0 °F 33.1 °F 92% 30.12 in 10.0 mi SW 4.6 mph - N/A   Overcast
3:53 AM 35.1 °F 32.2 °F 33.1 °F 92% 30.10 in 10.0 mi WSW 3.5 mph - N/A   Overcast
4:53 AM 35.1 °F - 33.1 °F 92% 30.09 in 10.0 mi Calm Calm - N/A   Overcast
5:53 AM 36.0 °F - 33.1 °F 89% 30.09 in 10.0 mi Calm Calm - N/A   Overcast
6:53 AM 36.0 °F 32.1 °F 34.0 °F 93% 30.09 in 10.0 mi WSW 4.6 mph - 0.00 in Rain Light Rain
7:23 AM 35.6 °F - 35.6 °F 100% 30.05 in 9.0 mi Calm Calm - 0.01 in Rain Light Rain
7:30 AM 37.4 °F - 35.6 °F 93% 30.05 in 9.0 mi Calm Calm - 0.01 in Rain Light Rain
7:53 AM 37.0 °F - 34.0 °F 89% 30.08 in 10.0 mi Calm Calm - 0.01 in Rain Light Rain
8:53 AM 37.0 °F 34.5 °F 35.1 °F 93% 30.08 in 9.0 mi ENE 3.5 mph - 0.00 in   Overcast
9:15 AM 37.4 °F 34.9 °F 35.6 °F 93% 30.05 in 9.0 mi NE 3.5 mph - N/A   Overcast
9:25 AM 37.4 °F 34.9 °F 35.6 °F 93% 30.06 in 9.0 mi NE 3.5 mph - N/A   Overcast
9:44 AM 37.4 °F 32.1 °F 35.6 °F 93% 30.06 in 10.0 mi NE 6.9 mph - N/A   Overcast
9:53 AM 37.9 °F 32.7 °F 36.0 °F 93% 30.10 in 9.0 mi NE 6.9 mph - 0.00 in Rain Light Rain
10:32 AM 37.4 °F 32.1 °F 35.6 °F 93% 30.08 in 9.0 mi NNE 6.9 mph - 0.00 in Rain Light Rain
10:53 AM 37.9 °F 31.5 °F 36.0 °F 93% 30.13 in 9.0 mi NNE 9.2 mph - 0.00 in Rain Light Rain
11:53 AM 37.9 °F 32.7 °F 36.0 °F 93% 30.15 in 10.0 mi NNE 6.9 mph - 0.00 in   Overcast
12:53 PM 39.0 °F 33.4 °F 36.0 °F 89% 30.16 in 10.0 mi North 8.1 mph - N/A   Overcast
1:16 PM 39.2 °F 33.0 °F 35.6 °F 87% 30.12 in 10.0 mi North 9.2 mph - N/A   Overcast
1:53 PM 39.9 °F 33.4 °F 36.0 °F 86% 30.16 in 10.0 mi North 10.4 mph - N/A   Overcast
2:18 PM 39.2 °F 31.6 °F 35.6 °F 87% 30.13 in 10.0 mi North 12.7 mph - N/A   Overcast
2:53 PM 39.9 °F 32.9 °F 35.1 °F 83% 30.17 in 10.0 mi North 11.5 mph - N/A   Overcast
3:46 PM 41.0 °F 34.7 °F 35.6 °F 81% 30.14 in 10.0 mi NNW 10.4 mph - N/A   Overcast
3:53 PM 41.0 °F 34.3 °F 35.1 °F 79% 30.18 in 10.0 mi NW 11.5 mph - N/A   Overcast
4:13 PM 41.0 °F 33.9 °F 33.8 °F 76% 30.15 in 10.0 mi North 12.7 mph - N/A   Overcast
4:53 PM 39.9 °F 32.9 °F 34.0 °F 79% 30.20 in 10.0 mi NNW 11.5 mph - N/A   Overcast
5:32 PM 39.2 °F 33.0 °F 35.6 °F 87% 30.17 in 10.0 mi NNW 9.2 mph - 0.00 in   Overcast
5:39 PM 39.2 °F 33.0 °F 35.6 °F 87% 30.18 in 7.0 mi NNW 9.2 mph - 0.00 in Rain Light Rain
5:53 PM 37.9 °F 30.0 °F 35.1 °F 89% 30.22 in 5.0 mi NNW 12.7 mph - 0.01 in Rain Light Rain
6:12 PM 37.4 °F 30.8 °F 35.6 °F 93% 30.18 in 10.0 mi NW 9.2 mph - 0.00 in   Overcast
6:53 PM 37.9 °F 33.5 °F 36.0 °F 93% 30.22 in 10.0 mi NNW 5.8 mph - 0.00 in   Overcast
7:12 PM 37.4 °F 29.3 °F 35.6 °F 93% 30.19 in 10.0 mi North 12.7 mph - N/A   Overcast
7:34 PM 37.4 °F 30.3 °F 32.0 °F 81% 30.20 in 10.0 mi North 10.4 mph - N/A   Overcast
7:53 PM 37.0 °F 31.6 °F 32.0 °F 82% 30.25 in 10.0 mi NNW 6.9 mph - N/A   Overcast
8:53 PM 33.1 °F 28.7 °F 30.9 °F 92% 30.26 in 10.0 mi NW 4.6 mph - N/A   Clear
9:53 PM 34.0 °F 27.2 °F 30.0 °F 85% 30.27 in 10.0 mi WNW 8.1 mph - N/A   Mostly Cloudy
10:53 PM 33.1 °F 25.5 °F 28.9 °F 85% 30.28 in 10.0 mi WNW 9.2 mph - N/A   Overcast
11:53 PM 34.0 °F 26.0 °F 30.0 °F 85% 30.29 in 10.0 mi WNW 10.4 mph - N/A   Overcast